Location: Gloden
(48.4833°N, 15.3167°E)
Time: 01:52:49
(UTC+00:00)

GEOS 3 Rocket - Pass Details

Date: 15 December 2019
Orbit: 782 x 837 km, 115.0° (Epoch: 28 January)

Event Time Altitude Azimuth Distance (km) Brightness Sun altitude
Rises 03:21:00 0° 119° (ESE) 3,269 7.6 -32.3°
Reaches altitude 10° 03:23:19 10° 114° (ESE) 2,348 6.7 -32.0°
Enters shadow 03:27:59 49° 50° (NE) 1,017 4.3 -31.2°
